[[{"header":{"parameterUnit":"m.s-1","parameterCategory":1,"la1":30.2991,"la2":30.254,"lo1":-89.0895,"lo2":-89.0444,"dy":0.0017,"dx":0.0017,"nx":28,"ny":28,"refTime":"2024-08-17T21:00:00:Z","depth":0,"parameterNumber":2,"parameterNumberName":"U-component_of_WINDS"},"data":[0,0,0,0,0,0,0,0,0,0,0,0,0,0,0,0,0,0,0,0,0,0,0,0,0,0,0,0,0,0,0,0,0,0,0,0,0,0,0,0,0,0,0,0,0,0,0,0,0,0,0,0,0,0,0,0,0,0,2.8949,2.895,0,2.9076,2.9078,2.9079,2.908,2.9079,2.9077,2.9076,2.9212,2.9217,2.9222,0,0,0,0,0,0,0,0,0,0,0,0,0,2.8712,2.8716,2.8948,2.895,2.8952,2.9076,2.9078,2.908,2.9081,2.9079,2.9077,2.9075,2.921,2.9216,2.9222,0,0,0,0,0,0,0,0,0,0,0,0,0,2.8825,2.8718,2.8948,2.8967,2.897,2.9076,2.9078,2.908,2.9081,2.9079,2.9076,2.9074,2.9208,2.9215,2.9223,2.932,0,0,2.9246,2.925,0,0,0,0,0,0,0,0,2.8818,2.8834,2.8963,2.8966,2.8969,2.906,2.9044,2.9161,2.9082,2.9039,2.9076,2.9073,2.9163,2.9175,2.9204,2.9326,2.9332,2.9247,2.9252,2.9255,2.9257,0,0,0,0,0,0,0,2.8811,2.8828,2.8999,2.8965,2.8969,2.8971,2.8985,2.9066,2.9114,2.9043,2.9043,2.9058,2.9165,2.9197,2.9207,2.9334,2.9247,2.9254,2.9259,2.9262,2.9544,2.9547,0,0,0,0,0,0,2.8798,2.8822,2.8995,2.9003,2.8886,2.8978,2.8992,2.9033,2.9113,2.9122,2.906,2.9058,2.9185,2.9198,2.9212,2.9331,2.9255,2.9262,2.9267,2.9541,2.9545,2.9548,0,0,0,0,0,0,2.8793,2.8814,2.899,2.8912,2.8935,2.8984,2.903,2.9037,2.9069,2.9126,2.9135,2.9083,2.9183,2.9201,2.9293,2.9336,2.9266,2.9273,2.9538,2.9542,2.9546,2.957,0,0,0,0,0,0,2.8786,2.8812,2.8847,2.8913,2.8939,2.9067,2.9033,2.9041,2.9082,2.908,2.915,2.9159,2.9183,2.9281,2.9301,2.9345,2.9279,2.9534,2.954,2.9545,2.9565,2.9574,2.9582,0,0,0,0,0,2.8778,2.8849,2.8849,2.887,2.8984,2.9069,2.9084,2.9108,2.9085,2.9122,2.9159,2.9157,2.9329,2.9291,2.9312,2.936,2.9532,2.9538,2.9544,2.9562,2.9573,2.9582,0,0,0,0,0,0,2.8788,2.8858,2.8858,2.8953,2.9005,2.9069,2.9116,2.9119,2.9179,2.9175,2.9204,2.922,2.9312,2.9346,2.9302,2.9459,2.9428,2.9439,2.9433,2.9444,2.9452,2.9442,2.9285,0,0,0,0,0,2.8801,2.8862,2.8921,2.8999,2.9025,2.9067,2.9104,2.9119,2.9174,2.9196,2.924,2.9295,2.9362,2.9405,2.947,2.9571,2.9587,2.9615,2.9623,2.963,2.9639,2.9697,2.971,2.9569,2.9569,2.9569,0,0,2.8829,2.8875,2.8912,2.9003,2.9044,2.9109,2.9085,2.9154,2.9203,2.9208,2.9296,2.9331,2.9395,2.9492,2.9537,2.9523,2.9682,2.9638,2.9643,2.9648,2.9705,2.9718,2.973,2.9573,2.9573,2.9572,0,0,2.8913,2.8953,2.9023,2.9066,2.9129,2.9157,2.9174,2.9238,2.9261,2.935,2.9356,2.9416,2.9529,2.9575,2.9613,2.9718,2.9719,2.9738,2.9782,2.9838,2.9849,2.9859,2.9896,2.991,2.9747,2.9748,2.9748,0,2.894,2.9035,2.9059,2.9129,2.9169,2.9176,2.9248,2.9289,2.9371,2.94,2.9383,2.9527,2.957,2.9679,2.9705,2.9736,2.9757,2.973,2.9845,2.9855,2.9865,2.9901,2.9915,2.9749,2.9749,2.9749,2.9749,0,2.9066,2.9133,2.9182,2.926,2.9306,2.9377,2.9413,2.9458,2.9469,2.9499,2.9592,2.9645,2.9721,2.9748,2.976,2.986,2.9849,2.9838,2.9807,2.988,2.9914,2.9929,2.9752,2.9752,2.9751,2.975,0,0,2.9157,2.9248,2.9266,2.9302,2.9374,2.9427,2.95,2.9573,2.9611,2.9669,2.9731,2.9828,2.9819,2.9863,2.9881,2.993,3.001,2.9913,2.9915,2.9929,3.0125,3.0132,3.0147,3.0012,3.0015,3.0017,3.0119,0,2.9248,2.9374,2.9399,2.951,2.9573,2.9582,2.9645,2.9698,2.9729,2.9789,2.9824,2.9892,2.9875,2.9901,2.9951,2.999,3.005,2.9983,3.0072,3.0075,3.0054,3.0165,3.0173,3.0266,3.0133,3.0135,3.0137,0,2.937,2.943,2.9546,2.9611,2.9639,2.9695,2.9765,2.9822,2.9883,2.9902,2.9952,2.9965,3.0043,3.0009,3.0118,3.0072,3.0111,3.0136,3.014,3.0149,3.0109,3.0176,3.0297,3.031,3.0159,3.0157,3.0155,0,2.9425,2.9535,2.9618,2.9649,2.9728,2.9767,2.9802,2.986,2.9903,2.9966,2.9994,3.0066,3.0105,3.0161,3.0194,3.0166,3.0301,3.027,3.0321,3.032,3.0347,3.0345,3.0475,3.0373,3.0373,3.0373,3.0373,0,2.9523,2.9594,2.9644,2.9696,2.9777,2.9806,2.9886,2.9921,2.9974,3.0034,3.0048,3.0104,3.0145,3.0208,3.0235,3.0322,3.034,3.0359,3.0365,3.0357,3.0354,3.0382,3.0376,3.0377,3.0376,3.0375,3.0374,0,2.9597,2.9633,2.9725,2.9792,2.9811,2.9868,2.9926,2.9978,3.001,3.0087,3.0107,3.0158,3.0233,3.0272,3.0367,3.0385,3.0483,3.0485,3.0461,3.0464,3.0512,3.0507,3.0664,3.0686,3.057,3.0571,3.0572,0,2.9656,2.9711,2.9784,2.9825,2.986,2.9926,2.997,3.0003,3.0049,3.0124,3.0167,3.0243,3.0305,3.0426,3.0473,3.0546,3.055,3.0601,3.0561,3.0552,3.0551,3.0547,3.0553,3.0607,3.0608,3.0609,3.0609,0,2.9759,2.9775,2.9836,2.9906,2.9958,3.0014,3.007,3.0103,3.0146,3.0197,3.0274,3.0322,3.0419,3.0495,3.0572,3.061,3.0618,3.0622,3.0637,3.0629,3.0613,3.0623,3.048,3.0618,3.0617,3.0616,3.0616,3.0615,2.9827,2.9877,2.9936,3.0006,3.0051,3.0104,3.0156,3.0195,3.0259,3.0339,3.0356,3.0437,3.05,3.0604,3.0645,3.0711,3.0701,3.0723,3.0729,3.0734,3.0736,3.0603,3.0725,3.0725,3.0725,3.0725,3.0725,0,2.993,2.9969,3.0033,3.011,3.0166,3.0167,3.023,3.0277,3.0348,3.0405,3.0466,3.0556,3.063,3.0684,3.076,3.0803,3.0808,3.0822,3.0818,3.0827,3.0741,3.0719,3.0816,3.0816,3.0816,3.0816,3.0816,3.0816,2.9989,3.0074,3.0097,3.0205,3.0245,3.0324,3.0359,3.0409,3.0455,3.0553,3.0615,3.0649,3.0706,3.0787,3.0856,3.087,3.0898,3.0911,3.0925,3.0843,3.0833,3.0824,3.0804,3.0917,3.0917,3.1007,3.1007,3.1008]},{"header":{"parameterUnit":"m.s-1","parameterCategory":1,"la1":30.2991,"la2":30.254,"lo1":-89.0895,"lo2":-89.0444,"dy":0.0017,"dx":0.0017,"nx":28,"ny":28,"refTime":"2024-08-17T21:00:00:Z","depth":0,"parameterNumber":3,"parameterNumberName":"V-component_of_WINDS"},"data":[0,0,0,0,0,0,0,0,0,0,0,0,0,0,0,0,0,0,0,0,0,0,0,0,0,0,0,0,0,0,0,0,0,0,0,0,0,0,0,0,0,0,0,0,0,0,0,0,0,0,0,0,0,0,0,0,0,0,3.9657,3.9659,0,3.9901,3.9903,3.9906,3.9941,3.9939,3.9937,3.9934,4.0178,4.0186,4.0195,0,0,0,0,0,0,0,0,0,0,0,0,0,3.9215,3.9223,3.9656,3.966,3.9663,3.99,3.9903,3.9907,3.9941,3.9939,3.9936,3.9933,4.0175,4.0185,4.0195,0,0,0,0,0,0,0,0,0,0,0,0,0,3.9427,3.9225,3.9656,3.9709,3.9716,3.9899,3.9904,3.9908,3.9942,3.9939,3.9935,3.9932,4.0172,4.0184,4.0197,4.0343,0,0,4.0236,4.0241,0,0,0,0,0,0,0,0,3.9415,3.9443,3.9698,3.9705,3.9714,3.9887,3.9837,4.0053,3.9943,3.9856,3.9934,3.9931,4.0083,4.0103,4.0156,4.0354,4.0364,4.0237,4.0245,4.025,4.0254,0,0,0,0,0,0,0,3.94,3.9433,3.9753,3.9702,3.9711,3.9718,3.9745,3.9878,3.9985,3.9863,3.9866,3.9895,4.0087,4.0144,4.0162,4.0368,4.0237,4.0248,4.0256,4.0261,4.0698,4.0702,0,0,0,0,0,0,3.9377,3.9421,3.9745,3.976,3.9553,3.9729,3.9759,3.9835,3.9984,4.0004,3.9898,3.9896,4.0123,4.0147,4.0171,4.0352,4.025,4.0262,4.027,4.0694,4.0699,4.0703,0,0,0,0,0,0,3.9367,3.9406,3.9735,3.9592,3.9634,3.974,3.9825,3.9841,3.9898,4.001,4.0029,3.9937,4.0122,4.0153,4.03,4.0361,4.0268,4.028,4.069,4.0696,4.0701,4.0716,0,0,0,0,0,0,3.9354,3.9402,3.946,3.9593,3.9642,3.9863,3.9829,3.9848,3.9921,3.9921,4.0051,4.007,4.0121,4.0281,4.0313,4.0377,4.029,4.0685,4.0692,4.0699,4.071,4.0721,4.0731,0,0,0,0,0,3.9339,3.9453,3.9463,3.9502,3.9717,3.9866,3.9894,3.9953,3.9926,3.9984,4.0056,4.0065,4.0349,4.0296,4.0332,4.0401,4.0681,4.069,4.0699,4.0706,4.0719,4.073,0,0,0,0,0,0,3.9322,3.9471,3.9484,3.9645,3.9743,3.9872,3.9947,3.9965,4.0072,4.0067,4.0134,4.0163,4.0307,4.0368,4.0307,4.055,4.0512,4.0529,4.0505,4.0519,4.0529,4.0511,4.03,0,0,0,0,0,3.9338,3.9449,3.9572,3.9702,3.9751,3.984,3.9908,3.9945,4.0048,4.0089,4.0172,4.027,4.0381,4.0453,4.0562,4.0719,4.0747,4.0784,4.0794,4.0802,4.0816,4.0903,4.0921,4.0732,4.0732,4.0732,0,0,3.937,3.9465,3.9531,3.9701,3.9781,3.9893,3.9875,3.9994,4.0077,4.0107,4.0252,4.0316,4.043,4.0583,4.0654,4.0638,4.0874,4.0813,4.0819,4.0828,4.0914,4.0932,4.0948,4.0738,4.0737,4.0736,0,0,3.9487,3.957,3.9688,3.9769,3.9892,3.9951,3.9979,4.0106,4.0151,4.0298,4.0323,4.0421,4.0611,4.0692,4.0757,4.0905,4.0917,4.0938,4.0992,4.1076,4.1091,4.1105,4.1158,4.1176,4.0951,4.0951,4.0951,0,3.9511,3.9683,3.9745,3.9865,3.9938,3.9973,4.0092,4.0167,4.0317,4.0367,4.0347,4.0587,4.0666,4.0839,4.0875,4.0927,4.096,4.0924,4.1084,4.1099,4.1112,4.1163,4.1183,4.0952,4.0952,4.0952,4.0952,0,3.9707,3.9825,3.9905,4.0053,4.0136,4.0254,4.0333,4.0408,4.0438,4.0499,4.0648,4.0744,4.0873,4.0916,4.0945,4.1093,4.1079,4.1071,4.1035,4.1131,4.118,4.12,4.0955,4.0954,4.0954,4.0953,0,0,3.982,4.0002,4.003,4.0098,4.0236,4.0328,4.0447,4.0575,4.0639,4.0741,4.0842,4.1003,4.0997,4.1071,4.1109,4.1184,4.1295,4.1167,4.117,4.1188,4.1464,4.147,4.1492,4.1304,4.1308,4.1311,4.1455,0,3.9953,4.017,4.023,4.0412,4.0522,4.0556,4.0659,4.0754,4.0813,4.0914,4.0978,4.1091,4.1074,4.112,4.1195,4.1265,4.1351,4.1256,4.1397,4.1402,4.1369,4.1518,4.1524,4.1656,4.1474,4.1477,4.148,0,4.0138,4.0247,4.0441,4.0566,4.0614,4.0707,4.0829,4.0925,4.1033,4.1071,4.1154,4.1186,4.131,4.1266,4.1437,4.1371,4.1432,4.1475,4.1481,4.1498,4.1447,4.1538,4.1699,4.1719,4.1511,4.1508,4.1506,0,4.0202,4.0397,4.0539,4.0596,4.0744,4.0809,4.0873,4.0978,4.1051,4.1157,4.1205,4.1323,4.1388,4.1478,4.154,4.1502,4.1706,4.1667,4.174,4.1739,4.1782,4.1779,4.1955,4.182,4.1819,4.1819,4.1818,0,4.0346,4.0463,4.057,4.0657,4.0789,4.0856,4.0984,4.1049,4.1142,4.1241,4.1276,4.1368,4.1444,4.1545,4.1594,4.1729,4.1757,4.179,4.1802,4.1788,4.1784,4.183,4.1823,4.1824,4.1823,4.1822,4.1821,0,4.044,4.0517,4.0673,4.0802,4.0837,4.0928,4.1038,4.1122,4.1183,4.1308,4.1341,4.1435,4.1557,4.1628,4.178,4.1813,4.1962,4.1969,4.1927,4.1932,4.2002,4.1994,4.2215,4.2247,4.2088,4.209,4.2091,0,4.0527,4.0618,4.0757,4.0828,4.0894,4.1006,4.1082,4.115,4.1227,4.1357,4.1426,4.155,4.1654,4.1845,4.1926,4.2043,4.2054,4.2123,4.2071,4.2055,4.2056,4.205,4.206,4.2132,4.2133,4.2134,4.2135,0,4.0673,4.0706,4.0816,4.0939,4.1029,4.1129,4.1227,4.1282,4.1367,4.1451,4.1578,4.1658,4.1814,4.1937,4.2061,4.2125,4.2144,4.2151,4.2174,4.2161,4.2133,4.215,4.1952,4.2145,4.2144,4.2144,4.2143,4.2143,4.0767,4.085,4.0962,4.1082,4.1164,4.1256,4.1343,4.1415,4.1522,4.1657,4.169,4.1823,4.1927,4.2096,4.2163,4.2266,4.2254,4.2288,4.2296,4.2304,4.2307,4.2116,4.2289,4.2288,4.2288,4.2288,4.2288,0,4.0915,4.0989,4.1099,4.1238,4.1333,4.1345,4.1455,4.1533,4.165,4.1747,4.1849,4.1993,4.2112,4.2203,4.2325,4.239,4.2402,4.242,4.2416,4.243,4.231,4.2278,4.2408,4.2408,4.2408,4.2408,4.2408,4.2408,4.1004,4.1146,4.1193,4.1375,4.1448,4.158,4.1642,4.1726,4.1804,4.1965,4.2066,4.2125,4.222,4.2348,4.2458,4.2481,4.2525,4.2541,4.2566,4.2452,4.2439,4.2426,4.2397,4.255,4.255,4.2679,4.268,4.2681]}]]